PAKNPACD

Guest
Details From PAKN - KING SALMON
To PACD - Cold Bay
Flight Number -
Tags decoded
Created
Modified
Stats Distance 288 nm / 533 km
Max Altitude 0 ft / 0 m
Waypoints 2
Social Downloads 0
Likes 0
Share VATSIM

Download

Looking for another format? Having issues loading an existing format? Contact us
Advertisement - Login to hide

Notes

Requested: PAKN PACD

Route

PAKN PACD

ID Type Via Altitude Latitude Longitude Leg Dist Tot Dist Heading (true) Name
O PAKN APT - 0 ft / 0 m 58.67709˚ -156.64992˚ - 0 nm - KING SALMON
O PACD APT - 0 ft / 0 m 55.20381˚ -162.72304˚ 288 nm 288 nm 226° / 221° Cold Bay

Altitude Profile

Advertisement - Login to hide

Weather


0- 5 10 15 20 25 30 35+ Temperature / ° C

Clouds and Precipitation
Forecast for 2017-12-16 00:00 UTC. Updated an hour ago

Ground ~20,000 ft ~40,000 ft Winds

PAKN

Details ICAO PAKN (AKN)
Name KING SALMON
Region USA (Alaska)
Timezone America/Anchorage (UTC-9.0)
Stats Elevation 68 ft / 21 m (AMSL)
Location 58.677088° -156.649920°
Runways 2
Magnetic Variation 13.467° E

METAR

PAKN 151954Z 11018G24KT 4SM RA BR OVC019 03/03 A2901

Decode

TAF

TAF PAKN 151740Z 1518/1618 13020G28KT P6SM -SHRA SCT010 SCT025 OVC050 FM160000 17014G22KT P6SM VCSH SCT020 BKN050 FM160300 16008KT P6SM SCT020 BKN050 BKN100

Decode

Departure Runways

ID Width Length Bearing (true) Bearing (mag) Surface Threshold Offset Overrun Length
11 150 ft / 46 m 8,480 ft / 2,585 m 131.89° 118.42° Asphalt 0 ft / 0 m 200 ft / 61 m
18 100 ft / 30 m 4,011 ft / 1,223 m 196.29° 182.82° Asphalt 0 ft / 0 m 0 ft / 0 m
29 150 ft / 46 m 8,480 ft / 2,585 m 311.92° 298.45° Asphalt 0 ft / 0 m 1,000 ft / 305 m
36 100 ft / 30 m 4,011 ft / 1,223 m 16.29° 2.82° Asphalt 0 ft / 0 m 0 ft / 0 m

PACD

Details ICAO PACD (CDB)
Name Cold Bay
Region USA (Alaska)
Timezone America/Nome (UTC-9.0)
Stats Elevation 98 ft / 30 m (AMSL)
Location 55.203815° -162.723041°
Runways 2
Magnetic Variation 10.766° E

METAR

PACD 151953Z 21019KT 10SM CLR 03/M02 A2895

Decode

TAF

TAF PACD 151740Z 1518/1618 22024G30KT P6SM -SHRASN SCT025 BKN035 FM152100 19015G25KT P6SM -SHRA BKN040 FM160600 20020G25KT 5SM -SHRA SCT020 BKN030

Decode

Destination Runways

ID Width Length Bearing (true) Bearing (mag) Surface Threshold Offset Overrun Length
08 151 ft / 46 m 4,222 ft / 1,287 m 94.77° 84.00° Asphalt 0 ft / 0 m 0 ft / 0 m
14 151 ft / 46 m 10,407 ft / 3,172 m 158.39° 147.62° Asphalt 0 ft / 0 m 0 ft / 0 m
26 151 ft / 46 m 4,222 ft / 1,287 m 274.79° 264.02° Asphalt 0 ft / 0 m 0 ft / 0 m
32 151 ft / 46 m 10,407 ft / 3,172 m 338.41° 327.64° Asphalt 0 ft / 0 m 0 ft / 0 m

Approach Navaids

Runway Type Ident Frequency Range Bearing (true) Bearing (mag) Slope Elevation
14 Localiser ICDB 110.30 MHz 18 nm / 33 km 158.42° 147.66° - 98 ft / 30 m (AMSL)
14 Glidescope ICDB 110.30 MHz 10 nm / 19 km 158.40° 147.63° 2.80° 69 ft / 21 m (AMSL)

Popular Alternatives